カタログに戻る

FENGYUN 1C DEB

運用中SSO
NORAD 30076·DEBRIS·🇨🇳 China

打ち上げ May 10, 1999 から Taiyuan Satellite Launch Center

Loading…

次のパス (今後24時間)

TLE

最新Source: Space-Track

元期: Sep 14, 2026, 05:57 UTC

1 30076U 99025QD  26257.24800573  .00000177  00000-0  19998-3 0  9996
2 30076  99.2644 241.3547 0175947  87.6455 288.2845 13.76460466986841

AllMySatでFENGYUN 1C DEBをリアルタイム追跡

Download on the App Store